Theta_e
290 290 290 290 290 291 291 292 293 294 294 294 295 296 298 300 307 309 309 309 308 306 305 303 302 297 295 293 292 293 290 290 286 281 284 284 285 284 285 287 287 287 289
288 288 289 290 289 289 289 290 292 292 293 294 295 295 296 298 303 307 307 307 306 305 303 302 301 296 295 293 292 291 289 288 286 281 282 282 283 284 285 285 284 285 285
287 287 288 288 288 288 289 290 291 291 292 293 293 294 295 297 301 306 307 306 306 305 302 300 295 295 292 292 291 289 289 289 286 284 281 282 281 283 283 284 284 284 283
286 286 286 287 288 288 289 290 290 291 291 292 293 295 296 297 300 305 306 304 305 302 300 300 295 294 293 292 291 290 288 287 287 285 282 281 281 281 283 281 280 282 281
285 286 286 288 289 289 289 289 290 290 291 292 292 294 294 296 299 301 302 302 300 298 297 297 295 294 292 293 292 289 288 287 286 284 282 280 279 278 280 281 281 281 281
285 285 286 287 288 288 289 291 290 289 290 291 293 293 294 295 297 297 299 299 296 294 293 291 292 289 290 292 293 292 291 287 286 285 281 282 280 280 280 280 280 279 279
284 285 286 286 286 287 289 290 288 289 291 291 292 293 293 295 296 296 294 295 293 292 290 288 288 288 289 289 290 290 290 292 290 285 283 282 281 281 281 279 279 280 281
284 284 285 285 285 285 286 287 288 289 290 290 290 292 293 295 296 294 291 292 290 289 289 288 287 287 288 287 288 287 285 285 285 283 285 282 283 282 282 281 280 279 277
283 283 284 285 285 285 285 285 287 287 287 287 288 289 291 292 293 292 290 288 287 286 287 287 287 287 289 289 287 284 282 282 286 286 286 285 285 284 282 280 279 279 277
284 284 284 285 285 285 285 285 286 287 286 287 286 288 288 289 291 291 289 287 285 285 286 286 287 287 289 290 286 285 282 281 283 283 283 284 284 284 283 281 279 279 278
285 285 285 285 285 285 285 285 285 285 286 285 285 286 287 288 289 290 290 287 286 285 285 285 287 289 289 289 288 286 284 282 283 282 282 281 280 281 281 280 279 279 277
285 285 285 285 285 285 285 285 285 286 285 285 285 284 285 286 288 290 290 289 289 286 285 286 287 288 288 287 285 286 285 283 281 279 279 277 277 277 278 278 278 279 278
283 283 284 285 285 285 285 285 285 285 285 284 284 284 284 285 287 289 289 289 288 285 285 286 288 288 286 285 286 285 281 280 279 278 278 278 278 278 276 276 275 276 276
282 284 284 284 284 285 285 285 285 284 284 284 283 282 283 283 284 284 285 285 285 285 285 284 285 285 285 284 283 282 281 281 280 279 279 279 278 278 278 278 278 277 276
283 283 284 284 284 284 284 284 284 284 285 284 284 284 283 282 283 286 285 284 283 283 283 282 281 280 279 279 278 278 278 279 280 279 280 280 279 279 277 277 276 276 275
283 282 282 283 283 284 284 284 287 286 287 287 287 285 284 286 286 286 285 285 285 283 281 279 278 278 277 277 276 275 274 275 274 276 277 276 276 275 275 275 275 274 274
277 277 279 279 280 281 282 281 280 284 287 287 287 287 286 286 286 286 285 285 283 281 277 276 275 275 274 274 274 274 274 274 273 276 276 275 275 276 276 275 274 273 272
272 272 275 275 277 277 277 278 279 279 279 281 286 286 287 287 286 285 283 281 277 278 276 276 276 276 275 276 276 275 273 271 270 270 269 268 267 268 268 267 267 266 267
274 272 272 272 272 272 274 275 275 276 277 279 281 282 284 285 284 283 283 279 278 278 276 275 275 274 272 270 269 267 266 265 265 265 263 263 263 264 263 262 263 260 261
270 270 270 272 272 272 272 273 273 274 275 276 277 277 277 275 274 274 275 276 275 274 272 270 268 266 264 263 262 262 262 262 261 261 260 260 261 261 260 259 259 259 259
269 268 269 269 269 269 270 271 275 276 276 276 275 277 277 271 269 268 267 267 269 268 265 262 260 259 259 259 260 260 260 259 258 258 258 258 257 259 256 257 257 255 255
269 268 266 268 267 269 270 275 276 274 272 270 269 272 271 265 264 261 259 258 257 258 259 260 258 257 258 259 258 259 258 258 257 257 257 255 256 256 255 256 256 256 255
273 268 266 263 266 271 273 273 272 270 266 262 261 261 261 260 258 258 256 256 256 256 256 258 258 255 254 255 255 258 259 259 258 256 257 256 257 257 256 257 256 256 256
274 272 269 266 268 270 270 268 266 262 261 260 259 259 258 257 257 255 254 254 255 254 254 254 254 255 253 254 254 254 254 254 253 255 255 258 258 256 256 255 255 255 256
273 272 269 267 266 265 264 263 261 260 259 259 258 257 256 256 255 253 253 253 253 255 253 252 251 252 251 251 252 253 253 257 255 254 255 256 257 255 254 255 255 256 255
268 268 267 265 264 264 263 262 260 259 258 257 257 257 257 256 255 254 253 253 253 252 252 251 251 250 251 252 253 258 263 264 263 259 259 260 259 258 256 256 256 256 256
Wind_Speed
16 16 16 15 14 15 16 17 17 16 15 15 15 15 15 15 15 16 15 16 18 17 15 16 18 16 11 8 6 5 4 4 9 3 4 2 9 9 8 9 10 11 9
16 18 16 15 15 15 16 17 17 17 16 15 13 13 15 16 16 17 18 15 17 18 16 16 19 12 15 12 9 8 5 2 6 8 4 4 3 10 10 11 8 7 8
16 16 17 16 15 16 17 17 17 17 17 16 16 18 17 16 16 18 18 16 18 16 17 16 14 15 15 13 12 9 7 5 7 7 6 3 3 8 6 5 7 8 6
16 17 19 17 16 15 16 17 17 17 16 16 16 15 14 15 14 16 17 16 17 15 15 16 16 17 17 18 16 14 8 9 9 9 4 6 3 4 6 5 5 6 6
15 15 16 16 15 15 16 16 15 15 15 15 15 16 15 11 9 11 16 16 14 13 13 14 14 17 20 21 17 15 14 8 10 9 6 4 4 5 11 6 7 5 5
16 15 15 14 14 14 14 14 14 13 14 14 13 14 13 10 8 16 15 13 13 14 12 10 10 10 14 18 15 25 22 18 13 8 4 8 5 5 6 7 5 4 4
14 13 13 13 12 11 10 4 9 11 11 11 10 11 11 6 18 18 18 12 13 12 12 12 10 8 13 12 19 19 16 15 16 9 8 5 7 8 10 6 4 4 4
12 12 12 11 10 8 8 5 4 5 8 7 7 9 9 8 22 20 17 12 11 11 12 14 14 15 15 17 17 12 11 7 8 6 7 7 4 9 7 5 6 5 3
12 11 11 11 8 7 9 9 7 8 7 6 4 7 12 12 23 24 17 11 11 11 11 12 14 13 21 25 17 15 11 8 11 15 14 14 14 16 11 8 5 4 2
13 11 9 10 9 9 8 9 8 9 9 8 10 8 10 12 19 22 18 11 12 10 9 11 16 16 23 21 15 13 12 9 9 9 8 9 9 10 13 3 6 4 2
10 10 10 10 10 9 9 8 9 9 11 11 12 10 11 11 12 18 19 10 11 11 10 9 11 23 20 18 16 9 9 10 11 7 6 5 4 3 4 4 5 4 4
10 11 11 10 8 7 9 8 9 10 11 11 12 10 9 9 11 16 18 19 18 13 11 9 14 24 24 22 14 18 19 12 6 5 5 3 3 3 3 4 4 3 2
9 10 11 11 10 10 11 9 8 9 9 8 9 9 8 7 9 21 23 24 22 13 9 17 23 24 24 17 19 18 11 6 6 5 4 3 2 3 4 3 2 2 4
8 10 9 10 11 11 9 8 8 7 7 8 8 8 8 8 9 8 10 14 22 15 18 13 16 17 16 12 9 7 4 4 4 3 2 3 3 3 2 2 3 3 3
8 8 8 8 10 12 12 9 9 9 8 8 7 7 8 9 6 11 13 10 9 13 13 10 8 7 8 7 6 6 4 4 3 2 3 2 2 1 2 2 2 3 5
8 7 6 6 7 7 8 11 24 21 20 21 21 14 9 15 20 23 24 23 22 16 8 8 7 7 7 6 5 3 2 4 3 2 2 1 0 1 1 1 2 3 4
6 5 5 6 6 7 7 8 10 15 23 20 19 17 18 19 22 22 22 20 16 13 9 6 7 7 6 5 5 3 4 3 3 4 3 3 2 3 2 3 3 3 3
4 6 5 4 4 5 5 6 6 7 9 8 15 14 18 19 20 20 19 14 9 11 8 8 8 6 5 5 5 5 6 5 5 5 5 5 5 4 3 3 4 3 3
4 3 3 4 4 4 5 6 6 7 8 8 8 13 13 19 18 17 15 8 9 9 7 7 6 6 6 6 6 6 5 5 5 5 5 5 4 3 3 3 3 4 3
4 4 4 4 4 4 4 6 6 6 7 7 6 4 3 5 8 8 7 7 8 8 7 8 7 7 6 6 5 5 6 5 5 5 4 4 3 3 3 3 3 3 2
4 3 5 4 4 4 4 6 5 6 7 6 5 4 11 7 7 7 7 7 7 7 7 7 5 5 5 5 5 5 6 5 4 3 3 3 3 3 2 2 2 1 1
3 4 3 4 4 5 5 6 6 6 6 6 6 8 16 8 8 7 7 7 5 5 4 6 6 5 4 5 5 5 5 4 4 3 3 2 2 2 1 1 2 2 2
5 5 4 3 4 7 6 5 6 6 6 6 5 6 7 7 7 7 6 5 5 5 4 5 5 5 3 3 2 3 4 3 2 2 2 2 1 2 1 2 2 3 3
7 6 6 5 4 5 5 6 6 7 6 6 6 7 7 6 6 6 5 4 5 4 4 4 4 5 4 3 1 1 1 1 3 3 4 1 1 1 1 2 2 3 4
7 7 7 7 6 6 7 6 6 6 6 6 6 6 6 7 6 5 4 3 4 5 4 4 3 3 3 2 2 4 5 5 5 5 3 2 3 4 3 3 3 4 5
6 7 7 7 6 7 8 8 7 7 7 6 6 6 6 6 5 5 4 4 4 4 4 3 2 2 2 2 3 4 3 4 4 6 4 3 3 4 3 4 6 5 6
Wind_Direction
293 286 280 274 272 270 261 259 257 254 247 235 230 231 229 233 230 216 202 182 189 188 184 186 195 167 168 164 152 147 128 140 129 124 110 123 163 175 175 184 185 190 200
295 291 280 270 260 255 254 250 251 248 243 232 224 229 230 232 236 215 205 185 189 194 186 186 184 175 173 160 163 155 157 132 127 137 118 131 144 181 182 185 187 184 191
296 292 285 278 267 259 255 251 244 240 235 232 226 223 221 225 232 219 199 181 186 186 180 173 165 174 171 162 156 152 145 115 103 139 124 137 115 164 158 175 186 195 202
296 291 291 282 270 261 254 248 238 229 229 226 225 220 214 216 227 209 186 175 181 177 175 181 174 175 176 166 159 154 142 127 114 129 110 128 114 143 175 167 184 205 199
299 295 290 287 280 269 258 246 234 221 218 217 219 219 216 220 223 190 166 166 162 163 172 175 179 176 179 180 162 160 145 144 135 139 141 112 150 155 187 170 197 174 208
311 305 301 298 296 287 273 251 216 207 208 208 208 206 209 211 196 158 156 157 152 158 161 154 153 154 162 170 178 157 158 152 151 143 137 157 178 165 158 162 146 147 207
315 318 315 315 311 311 302 225 174 187 192 196 195 194 205 200 151 152 144 149 149 156 153 142 129 145 147 141 142 132 133 143 143 127 140 164 165 175 149 145 154 155 178
328 329 329 326 331 337 12 43 112 167 178 164 173 201 198 178 152 140 133 135 134 140 151 147 149 146 149 142 136 130 103 107 117 106 141 147 145 154 151 144 155 119 92
340 344 340 337 339 1 28 33 46 73 77 91 99 127 141 142 140 134 123 123 122 128 129 138 134 145 146 139 130 118 116 104 106 110 114 119 126 142 137 120 132 131 187
348 351 349 352 354 18 40 46 55 72 74 73 63 69 104 115 130 132 127 126 123 122 115 123 133 137 132 134 128 136 126 126 118 103 104 112 117 144 154 92 142 151 135
350 2 9 11 16 18 32 47 68 75 80 79 77 68 81 96 112 118 122 123 134 124 118 122 123 116 120 120 116 119 127 135 127 105 104 105 102 119 145 153 168 148 168
359 19 19 26 30 28 45 45 57 78 85 85 88 81 69 81 92 106 111 107 113 114 116 121 112 120 112 105 93 108 123 115 108 120 134 126 150 178 194 185 190 206 240
13 22 23 27 33 35 45 50 56 56 70 77 81 84 80 77 87 100 97 102 104 94 101 109 108 106 105 105 115 114 106 115 133 135 143 151 175 161 123 113 144 200 252
24 29 34 39 43 39 45 45 55 56 66 73 79 82 87 84 75 80 92 93 91 96 97 96 105 102 99 102 99 107 117 130 133 128 130 129 123 117 149 185 200 197 242
29 25 35 42 51 59 54 51 59 48 61 78 68 75 83 75 67 101 106 106 110 112 107 104 103 90 90 90 88 89 92 102 103 116 113 134 162 195 225 204 225 210 227
49 41 35 46 48 56 66 68 55 62 64 68 70 79 72 99 100 99 102 108 113 113 91 94 87 92 98 100 106 96 68 74 59 66 94 91 78 260 269 201 224 242 255
57 34 44 51 54 61 68 78 85 61 67 75 85 91 95 101 96 95 93 87 89 89 90 89 91 86 88 85 92 83 88 84 108 79 75 63 42 28 2 342 343 317 296
64 51 66 48 59 65 62 63 68 80 81 65 61 81 86 97 100 95 92 81 65 62 76 88 93 98 110 109 102 91 74 61 60 56 58 56 45 44 44 32 26 14 359
89 75 70 79 66 67 68 66 69 78 84 85 80 62 73 91 86 74 82 90 100 94 83 79 77 80 79 72 70 67 69 67 62 65 57 58 50 65 69 55 48 38 19
102 103 87 94 87 85 80 92 86 80 83 83 83 66 36 60 71 65 62 71 78 78 76 76 67 68 72 81 83 87 86 78 76 73 72 71 76 79 81 69 53 37 17
123 117 121 96 94 101 102 100 98 98 99 95 91 101 90 92 84 70 63 54 67 75 80 89 88 84 83 88 91 90 89 95 94 103 106 89 81 77 61 72 69 87 356
128 127 107 116 127 110 112 108 109 104 97 95 78 79 87 79 79 76 71 70 68 73 76 100 95 95 96 103 108 105 110 113 115 108 92 85 78 79 78 52 25 7 357
142 128 114 105 112 120 103 95 99 98 96 91 87 82 71 79 84 90 93 88 85 86 74 91 105 99 86 92 103 117 114 121 141 145 131 131 128 87 47 18 355 340 340
145 140 131 127 123 108 106 102 97 95 105 98 94 92 95 96 102 100 102 106 104 96 87 90 86 98 97 93 110 160 162 187 185 197 199 196 19 30 326 319 322 301 292
150 141 144 148 138 126 117 111 110 107 105 109 109 106 110 113 111 109 114 107 99 95 85 82 88 107 118 160 216 225 226 221 200 190 195 206 276 273 262 265 275 285 268
142 140 139 134 133 132 132 130 124 124 123 124 123 123 129 124 119 118 115 104 103 97 103 95 106 137 188 235 279 310 340 335 293 230 195 209 240 258 228 255 266 260 268